Aruba, Aruba

11:18 PM AST on July 20, 2017 (GMT -0400)
Oranjestad-Reina Beatrix International

Weather History for TNCA - February, 2014

Change the Weather History Date:

Thursday, February 13, 2014

  Actual Average Record
Temperature  
Mean Temperature 82 °F -  
Max Temperature 86 °F 85 °F 89 °F (2015)
Min Temperature 77 °F 75 °F 73 °F (2012)
Cooling Degree Days 16    
Growing Degree Days 32 (Base 50)    
Moisture  
Dew Point 73 °F    
Average Humidity 76    
Maximum Humidity 83    
Minimum Humidity 63    
Precipitation  
Precipitation 0.00 in - - ()
Sea Level Pressure  
Sea Level Pressure 29.86 in    
Wind  
Wind Speed 15 mph ()    
Max Wind Speed 24 mph    
Max Gust Speed 33 mph    
Visibility 7.6 miles    
Events      
Averages and records for this station are not official NWS values.
T = Trace of Precipitation, MM = Missing Value Source: Averaged Metar Reports

Daily Weather History Graph

Daily Weather History Graph

Search for Another Location

Airport or City:

Trip Planner

Search our weather history database for the weather conditions in past years. The results will help you decide how hot, cold, wet, or windy it might be!

Date:

Astronomy

Feb. 13, 2014 Rise Set
Actual Time 7:02 AM AST 6:45 PM AST
Civil Twilight 6:41 AM AST 7:07 PM AST
Nautical Twilight 6:15 AM AST 7:32 PM AST
Astronomical Twilight 5:50 AM AST 7:57 PM AST
Moon 5:50 PM AST (2/13) 5:51 AM AST (2/13)
Length of Visible Light 12h 26m
Length of Day
11h 43m
Waxing Gibbous, 98% of the Moon is Illuminated
Feb 13
Waxing Gibbous
Feb 14
Full
Feb 22
Last Quarter
Mar 1
New
Mar 8
First Quarter

Hourly Weather History & Observations

Time (AST) Temp. Heat Index Dew Point Humidity Pressure Visibility Wind Dir Wind Speed Gust Speed Precip Events Conditions
12:00 AM 78.8 °F - 73.4 °F 83% 29.86 in 6.2 mi East 17.3 mph - N/A   Scattered Clouds
1:00 AM 78.8 °F - 73.4 °F 83% 29.86 in 6.2 mi East 15.0 mph - N/A   Mostly Cloudy
2:00 AM 78 °F - 73 °F 80% 29.87 in 16 mi East 12.7 mph - -   Scattered Clouds
2:00 AM 78.8 °F - 73.4 °F 83% 29.86 in 6.2 mi East 12.7 mph - N/A   Partly Cloudy
3:00 AM 78.8 °F - 73.4 °F 83% 29.83 in 6.2 mi East 11.5 mph - N/A   Partly Cloudy
4:00 AM 78.8 °F - 71.6 °F 78% 29.83 in 6.2 mi East 16.1 mph - N/A   Partly Cloudy
5:00 AM 78 °F - 72 °F 77% 29.85 in 16 mi East 12.7 mph - -   Scattered Clouds
5:00 AM 77.0 °F - 71.6 °F 83% 29.83 in 6.2 mi East 12.7 mph - N/A   Partly Cloudy
6:00 AM 77.0 °F - 71.6 °F 83% 29.86 in 6.2 mi East 12.7 mph - N/A   Partly Cloudy
7:00 AM 77.0 °F - 71.6 °F 83% 29.89 in 6.2 mi East 12.7 mph - N/A   Partly Cloudy
8:00 AM 80 °F - 72 °F 70% 29.90 in 12 mi East 15.0 mph - -   Haze
8:00 AM 78.8 °F - 71.6 °F 78% 29.89 in 6.2 mi East 15.0 mph - N/A   Partly Cloudy
9:00 AM 82.4 °F 88.2 °F 73.4 °F 74% 29.92 in 6.2 mi East 19.6 mph - N/A   Partly Cloudy
10:00 AM 84.2 °F 90.9 °F 73.4 °F 70% 29.92 in 6.2 mi East 19.6 mph - N/A   Partly Cloudy
11:00 AM 85 °F - 74 °F 63% 29.93 in 11 mi East 20.7 mph - -   Haze
11:00 AM 86.0 °F 93.4 °F 73.4 °F 66% 29.92 in 6.2 mi East 20.7 mph 33.4 mph N/A   Scattered Clouds
12:00 PM 86.0 °F 95.1 °F 75.2 °F 70% 29.89 in 6.2 mi East 20.7 mph - N/A   Mostly Cloudy
1:00 PM 84.2 °F 92.3 °F 75.2 °F 74% 29.86 in 6.2 mi East 21.9 mph - N/A   Mostly Cloudy
2:00 PM 85 °F - 74 °F 63% 29.86 in 11 mi East 18.4 mph - -   Haze
2:00 PM 84.2 °F 92.3 °F 75.2 °F 74% 29.86 in 6.2 mi East 18.4 mph 31.1 mph N/A   Scattered Clouds
3:00 PM 84.2 °F 92.3 °F 75.2 °F 74% 29.83 in 6.2 mi East 19.6 mph - N/A   Mostly Cloudy
4:00 PM 84.2 °F 90.9 °F 73.4 °F 70% 29.80 in 6.2 mi ENE 23.0 mph - N/A   Partly Cloudy
5:00 PM 84 °F - 74 °F 65% 29.81 in 11 mi East 24.2 mph - -   Haze
5:00 PM 84.2 °F 90.9 °F 73.4 °F 70% 29.80 in 6.2 mi East 24.2 mph - N/A   Partly Cloudy
6:00 PM 82.4 °F 89.5 °F 75.2 °F 79% 29.80 in 6.2 mi ENE 20.7 mph - N/A   Partly Cloudy
7:00 PM 80.6 °F 85.4 °F 73.4 °F 79% 29.80 in 6.2 mi ENE 19.6 mph - N/A   Partly Cloudy
8:00 PM 79 °F - 74 °F 79%  in 9 mi ENE 19.6 mph - -  
8:00 PM 78.8 °F - 73.4 °F 83% 29.83 in 6.2 mi ENE 19.6 mph - N/A   Partly Cloudy
9:00 PM 78.8 °F - 73.4 °F 83% 29.86 in 6.2 mi ENE 20.7 mph - N/A   Partly Cloudy
10:00 PM 78.8 °F - 73.4 °F 83% 29.86 in 6.2 mi East 16.1 mph - N/A   Partly Cloudy
11:00 PM 79 °F - 74 °F 79% 29.88 in - East 19.6 mph - -   Haze
11:00 PM 78.8 °F - 73.4 °F 83% 29.86 in 6.2 mi East 19.6 mph - N/A   Partly Cloudy